Location: ??????
(41.3164°N, 22.6615°E)
Time: 20:17:15
(UTC+00:00)

Cosmos 405 Rocket - Pass Details

Date: 16 October 2021
Orbit: 488 x 551 km, 81.3° (Epoch: 29 November)

Event Time Altitude Azimuth Distance (km) Brightness Sun altitude
Rises 16:56:45 0° 357° (N) 2,671 6.4 -13.9°
Reaches altitude 10° 16:58:58 10° 4° (N) 1,788 5.4 -14.3°
Maximum altitude 17:02:44 44° 77° (ENE) 753 3.0 -15.0°
Enters shadow 17:06:26 11° 150° (SSE) 1,758 5.1 -15.7°
